TimeMST,TemperatureF,Dew PointF,Humidity,Sea Level PressureIn,VisibilityMPH,Wind Direction,Wind SpeedMPH,Gust SpeedMPH,PrecipitationIn,Events,Conditions,WindDirDegrees,DateUTC
12:53 AM,39.0,19.9,46,29.99,10.0,SSW,12.7,-,N/A,,Clear,200,2011-11-30 07:53:00
1:53 AM,39.0,19.0,45,29.97,10.0,SSW,12.7,-,N/A,,Clear,210,2011-11-30 08:53:00
2:53 AM,39.9,21.0,47,29.92,10.0,South,12.7,-,N/A,,Clear,190,2011-11-30 09:53:00
3:53 AM,35.1,19.9,54,29.91,10.0,SW,11.5,-,N/A,,Clear,220,2011-11-30 10:53:00
4:53 AM,37.0,21.0,52,29.89,10.0,SW,11.5,-,N/A,,Clear,220,2011-11-30 11:53:00
6:53 AM,35.1,21.0,57,29.89,10.0,SW,12.7,-,N/A,,Clear,220,2011-11-30 13:53:00
8:53 AM,46.9,21.0,36,29.83,10.0,WSW,4.6,-,N/A,,Clear,250,2011-11-30 15:53:00
9:53 AM,42.1,23.0,47,29.83,10.0,West,9.2,-,N/A,,Clear,280,2011-11-30 16:53:00
10:53 AM,45.0,-9999,N/A,29.80,-9999.0,North,-9999.0,-,N/A,,Unknown,0,2011-11-30 17:53:00
11:53 AM,52.0,19.0,27,29.74,10.0,NW,6.9,-,N/A,,Clear,310,2011-11-30 18:53:00
12:53 PM,55.9,15.1,20,29.71,10.0,North,11.5,-,N/A,,Clear,10,2011-11-30 19:53:00
1:53 PM,57.0,15.1,19,29.71,10.0,North,16.1,-,N/A,,Clear,10,2011-11-30 20:53:00
2:53 PM,55.9,17.1,22,29.72,10.0,NNE,16.1,-,N/A,,Clear,30,2011-11-30 21:53:00
3:53 PM,48.9,19.0,31,29.78,10.0,NE,9.2,-,N/A,,Clear,40,2011-11-30 22:53:00
4:53 PM,41.0,18.0,40,29.82,10.0,NNE,9.2,-,N/A,,Clear,20,2011-11-30 23:53:00
5:53 PM,37.9,19.0,47,29.88,10.0,NNE,10.4,-,N/A,,Clear,30,2011-12-01 00:53:00
6:53 PM,39.0,21.9,50,29.91,10.0,NNE,13.8,-,N/A,,Clear,30,2011-12-01 01:53:00
7:53 PM,34.0,23.0,64,29.94,10.0,NNE,9.2,-,N/A,,Clear,20,2011-12-01 02:53:00
8:53 PM,33.1,23.0,66,29.95,10.0,North,13.8,-,N/A,,Clear,10,2011-12-01 03:53:00
9:53 PM,30.0,23.0,75,30.01,10.0,North,12.7,-,N/A,,Clear,360,2011-12-01 04:53:00
10:53 PM,27.0,21.9,81,30.06,10.0,NNW,10.4,-,N/A,,Clear,330,2011-12-01 05:53:00
11:53 PM,26.1,21.9,84,30.07,10.0,NNW,11.5,-,N/A,,Clear,330,2011-12-01 06:53:00